| time (UTC) | temp F | wind direction | speed MPH | gust MPH | rain 1hr in | rain 24hr in | rain mn in | humidity % | barometer mb |
| 20260901000121 | 88 | 196 | 1.0 | 3.0 | 0.00 | 0.00 | 0.00 | 66 | 1013.1 |
| 20260831235648 | 88 | 196 | 2.0 | 4.0 | 0.00 | 0.00 | 0.00 | 66 | 1013.1 |
| 20260831235126 | 88 | 185 | 0.0 | 4.0 | 0.00 | 0.00 | 0.00 | 67 | 1013.2 |
| 20260831234648 | 88 | 185 | 0.0 | 2.0 | 0.00 | 0.00 | 0.00 | 67 | 1013.1 |
| 20260831234124 | 88 | 185 | 0.0 | 2.0 | 0.00 | 0.00 | 0.00 | 67 | 1013.1 |
| 20260831233633 | 88 | 185 | 1.0 | 2.0 | 0.00 | 0.00 | 0.00 | 67 | 1013.1 |
| 20260831233132 | 88 | 185 | 1.0 | 2.0 | 0.00 | 0.00 | 0.00 | 66 | 1013.2 |
| 20260831232635 | 88 | 185 | 1.0 | 3.0 | 0.00 | 0.00 | 0.00 | 66 | 1013.2 |
| 20260831232133 | 88 | 185 | 1.0 | 3.0 | 0.00 | 0.00 | 0.00 | 66 | 1013.1 |
| 20260831231656 | 88 | 221 | 1.0 | 3.0 | 0.00 | 0.00 | 0.00 | 67 | 1013.1 |
| 20260831231133 | 88 | 239 | 0.0 | 2.0 | 0.00 | 0.00 | 0.00 | 66 | 1013.1 |
| 20260831230636 | 88 | 239 | 1.0 | 3.0 | 0.00 | 0.00 | 0.00 | 66 | 1013.1 |
| 20260831230135 | 89 | 239 | 0.0 | 3.0 | 0.00 | 0.00 | 0.00 | 66 | 1013.1 |
| 20260831225625 | 89 | 252 | 0.0 | 3.0 | 0.00 | 0.00 | 0.00 | 66 | 1013.1 |
| 20260831225124 | 89 | 229 | 1.0 | 5.0 | 0.00 | 0.00 | 0.00 | 66 | 1013.0 |
| 20260831224632 | 89 | 229 | 2.0 | 5.0 | 0.00 | 0.00 | 0.00 | 65 | 1013.1 |
| 20260831224127 | 90 | 224 | 1.0 | 4.0 | 0.00 | 0.00 | 0.00 | 64 | 1013.1 |
| 20260831223635 | 90 | 306 | 1.0 | 4.0 | 0.00 | 0.00 | 0.00 | 64 | 1013.1 |
| 20260831223132 | 91 | 231 | 2.0 | 5.0 | 0.00 | 0.00 | 0.00 | 62 | 1013.1 |
| 20260831222635 | 91 | 241 | 1.0 | 5.0 | 0.00 | 0.00 | 0.00 | 62 | 1013.1 |
| 20260831222132 | 91 | 168 | 1.0 | 4.0 | 0.00 | 0.00 | 0.00 | 62 | 1013.1 |
| 20260831221636 | 90 | 222 | 2.0 | 4.0 | 0.00 | 0.00 | 0.00 | 64 | 1013.1 |
| 20260831221135 | 89 | 252 | 1.0 | 3.0 | 0.00 | 0.00 | 0.00 | 65 | 1013.1 |
| 20260831220638 | 89 | 252 | 1.0 | 3.0 | 0.00 | 0.00 | 0.00 | 65 | 1013.2 |
| 20260831220140 | 89 | 194 | 1.0 | 4.0 | 0.00 | 0.00 | 0.00 | 65 | 1013.2 |
| 20260831215623 | 89 | 268 | 3.0 | 5.0 | 0.00 | 0.00 | 0.00 | 64 | 1013.3 |
| 20260831215121 | 89 | 195 | 3.0 | 5.0 | 0.00 | 0.00 | 0.00 | 64 | 1013.2 |
| 20260831214624 | 90 | 214 | 2.0 | 4.0 | 0.00 | 0.00 | 0.00 | 64 | 1013.3 |
| 20260831214125 | 90 | 302 | 3.0 | 5.0 | 0.00 | 0.00 | 0.00 | 63 | 1013.3 |
| 20260831213632 | 90 | 185 | 1.0 | 7.0 | 0.00 | 0.00 | 0.00 | 63 | 1013.4 |
| 20260831213134 | 90 | 175 | 4.0 | 7.0 | 0.00 | 0.00 | 0.00 | 62 | 1013.4 |
| 20260831212622 | 90 | 262 | 3.0 | 7.0 | 0.00 | 0.00 | 0.00 | 63 | 1013.4 |
| 20260831212119 | 90 | 201 | 1.0 | 7.0 | 0.00 | 0.00 | 0.00 | 64 | 1013.4 |
| 20260831211623 | 90 | 270 | 3.0 | 7.0 | 0.00 | 0.00 | 0.00 | 62 | 1013.4 |
| 20260831211122 | 90 | 179 | 2.0 | 6.0 | 0.00 | 0.00 | 0.00 | 62 | 1013.4 |
| 20260831210626 | 90 | 214 | 2.0 | 7.0 | 0.00 | 0.00 | 0.00 | 61 | 1013.4 |
| 20260831210129 | 90 | 188 | 4.0 | 7.0 | 0.00 | 0.00 | 0.00 | 60 | 1013.4 |
| 20260831205636 | 90 | 227 | 4.0 | 6.0 | 0.00 | 0.00 | 0.00 | 60 | 1013.4 |
| 20260831205134 | 90 | 229 | 1.0 | 7.0 | 0.00 | 0.00 | 0.00 | 61 | 1013.4 |
| 20260831204619 | 90 | 271 | 4.0 | 7.0 | 0.00 | 0.00 | 0.00 | 60 | 1013.5 |
| 20260831204120 | 90 | 286 | 4.0 | 9.0 | 0.00 | 0.00 | 0.00 | 61 | 1013.5 |
| 20260831203628 | 90 | 173 | 2.0 | 9.0 | 0.00 | 0.00 | 0.00 | 63 | 1013.6 |
| 20260831203127 | 89 | 213 | 2.0 | 8.0 | 0.00 | 0.00 | 0.00 | 64 | 1013.6 |
| 20260831202630 | 89 | 214 | 2.0 | 9.0 | 0.00 | 0.00 | 0.00 | 63 | 1013.7 |
| 20260831202148 | 89 | 210 | 4.0 | 9.0 | 0.00 | 0.00 | 0.00 | 63 | 1013.7 |
| 20260831201633 | 90 | 197 | 3.0 | 7.0 | 0.00 | 0.00 | 0.00 | 64 | 1013.6 |
| 20260831201135 | 90 | 221 | 4.0 | 7.0 | 0.00 | 0.00 | 0.00 | 63 | 1013.7 |
| 20260831200658 | 90 | 265 | 2.0 | 7.0 | 0.00 | 0.00 | 0.00 | 64 | 1013.7 |
| 20260831200116 | 90 | 262 | 3.0 | 7.0 | 0.00 | 0.00 | 0.00 | 62 | 1013.7 |
| 20260831195622 | 90 | 187 | 3.0 | 6.0 | 0.00 | 0.00 | 0.00 | 63 | 1013.6 |
| 20260831195120 | 91 | 277 | 2.0 | 5.0 | 0.00 | 0.00 | 0.00 | 63 | 1013.7 |
| 20260831194624 | 90 | 295 | 2.0 | 5.0 | 0.00 | 0.00 | 0.00 | 61 | 1013.6 |
| 20260831194125 | 90 | 200 | 2.0 | 5.0 | 0.00 | 0.00 | 0.00 | 62 | 1013.7 |
| 20260831193647 | 90 | 237 | 2.0 | 7.0 | 0.00 | 0.00 | 0.00 | 61 | 1013.7 |
| 20260831193128 | 89 | 235 | 3.0 | 7.0 | 0.00 | 0.00 | 0.00 | 62 | 1013.7 |
| 20260831192634 | 89 | 324 | 2.0 | 5.0 | 0.00 | 0.00 | 0.00 | 65 | 1013.7 |
| 20260831192132 | 89 | 259 | 4.0 | 6.0 | 0.00 | 0.00 | 0.00 | 63 | 1013.6 |
| 20260831191617 | 89 | 193 | 3.0 | 6.0 | 0.00 | 0.00 | 0.00 | 64 | 1013.6 |
| 20260831191138 | 88 | 256 | 2.0 | 5.0 | 0.00 | 0.00 | 0.00 | 63 | 1013.6 |
| 20260831190625 | 88 | 235 | 1.0 | 5.0 | 0.00 | 0.00 | 0.00 | 64 | 1013.6 |
| 20260831190121 | 88 | 231 | 1.0 | 4.0 | 0.00 | 0.00 | 0.00 | 64 | 1013.6 |
| 20260831185623 | 88 | 264 | 3.0 | 5.0 | 0.00 | 0.00 | 0.00 | 65 | 1013.6 |
| 20260831185141 | 88 | 274 | 4.0 | 5.0 | 0.00 | 0.00 | 0.00 | 64 | 1013.7 |
| 20260831184632 | 88 | 356 | 3.0 | 5.0 | 0.00 | 0.00 | 0.00 | 64 | 1013.6 |
| 20260831184153 | 88 | 230 | 2.0 | 6.0 | 0.00 | 0.00 | 0.00 | 64 | 1013.6 |
| 20260831183636 | 88 | 185 | 2.0 | 6.0 | 0.00 | 0.00 | 0.00 | 63 | 1013.6 |
| 20260831183134 | 88 | 268 | 2.0 | 5.0 | 0.00 | 0.00 | 0.00 | 62 | 1013.5 |
| 20260831182641 | 88 | 249 | 1.0 | 5.0 | 0.00 | 0.00 | 0.00 | 64 | 1013.7 |
| 20260831182136 | 88 | 215 | 1.0 | 5.0 | 0.00 | 0.00 | 0.00 | 65 | 1013.6 |
| 20260831181620 | 87 | 285 | 3.0 | 6.0 | 0.00 | 0.00 | 0.00 | 65 | 1013.7 |
| 20260831181119 | 87 | 183 | 3.0 | 6.0 | 0.00 | 0.00 | 0.00 | 67 | 1013.6 |
| 20260831180622 | 86 | 278 | 2.0 | 5.0 | 0.00 | 0.00 | 0.00 | 68 | 1013.6 |
| 20260831180121 | 86 | 243 | 4.0 | 6.0 | 0.00 | 0.00 | 0.00 | 67 | 1013.6 |
| 20260831175645 | 86 | 275 | 2.0 | 6.0 | 0.00 | 0.00 | 0.00 | 69 | 1013.7 |
| 20260831175120 | 86 | 246 | 2.0 | 4.0 | 0.00 | 0.00 | 0.00 | 69 | 1013.6 |
| 20260831174623 | 85 | 164 | 2.0 | 5.0 | 0.00 | 0.00 | 0.00 | 71 | 1013.6 |
| 20260831174141 | 85 | 254 | 2.0 | 6.0 | 0.00 | 0.00 | 0.00 | 71 | 1013.6 |
| 20260831173624 | 85 | 345 | 2.0 | 6.0 | 0.00 | 0.00 | 0.00 | 71 | 1013.7 |
| 20260831173143 | 85 | 234 | 3.0 | 4.0 | 0.00 | 0.00 | 0.00 | 71 | 1013.7 |
| 20260831172626 | 84 | 273 | 0.0 | 6.0 | 0.00 | 0.00 | 0.00 | 70 | 1013.6 |
| 20260831172131 | 85 | 291 | 1.0 | 6.0 | 0.00 | 0.00 | 0.00 | 70 | 1013.7 |
| 20260831171637 | 85 | 325 | 3.0 | 5.0 | 0.00 | 0.00 | 0.00 | 69 | 1013.6 |
| 20260831171135 | 84 | 341 | 1.0 | 5.0 | 0.00 | 0.00 | 0.00 | 70 | 1013.6 |
| 20260831170632 | 84 | 329 | 2.0 | 5.0 | 0.00 | 0.00 | 0.00 | 69 | 1013.6 |
| 20260831170153 | 84 | 38 | 2.0 | 6.0 | 0.00 | 0.00 | 0.00 | 71 | 1013.5 |
| 20260831165637 | 83 | 52 | 2.0 | 6.0 | 0.00 | 0.00 | 0.00 | 72 | 1013.4 |
| 20260831165117 | 83 | 262 | 2.0 | 4.0 | 0.00 | 0.00 | 0.00 | 70 | 1013.5 |
| 20260831164621 | 83 | 1 | 2.0 | 6.0 | 0.00 | 0.00 | 0.00 | 73 | 1013.5 |
| 20260831164123 | 82 | 204 | 3.0 | 6.0 | 0.00 | 0.00 | 0.00 | 72 | 1013.5 |
| 20260831163628 | 82 | 314 | 2.0 | 5.0 | 0.00 | 0.00 | 0.00 | 73 | 1013.4 |
| 20260831163130 | 82 | 275 | 2.0 | 4.0 | 0.00 | 0.00 | 0.00 | 73 | 1013.4 |
| 20260831162634 | 81 | 334 | 2.0 | 6.0 | 0.00 | 0.00 | 0.00 | 74 | 1013.4 |
| 20260831162136 | 81 | 239 | 3.0 | 6.0 | 0.00 | 0.00 | 0.00 | 73 | 1013.4 |
| 20260831161620 | 82 | 24 | 2.0 | 4.0 | 0.00 | 0.00 | 0.00 | 72 | 1013.3 |
| 20260831161119 | 82 | 284 | 2.0 | 4.0 | 0.00 | 0.00 | 0.00 | 72 | 1013.3 |
| 20260831160631 | 82 | 318 | 3.0 | 6.0 | 0.00 | 0.00 | 0.00 | 72 | 1013.2 |
| 20260831160130 | 82 | 281 | 2.0 | 7.0 | 0.00 | 0.00 | 0.00 | 73 | 1013.0 |
| 20260831155617 | 81 | 279 | 3.0 | 7.0 | 0.00 | 0.00 | 0.00 | 72 | 1012.8 |
| 20260831155117 | 81 | 300 | 3.0 | 5.0 | 0.00 | 0.00 | 0.00 | 73 | 1012.7 |
| 20260831154622 | 81 | 339 | 1.0 | 4.0 | 0.00 | 0.00 | 0.00 | 73 | 1012.6 |
| 20260831154120 | 81 | 310 | 3.0 | 6.0 | 0.00 | 0.00 | 0.00 | 73 | 1012.6 |
| 20260831153625 | 81 | 241 | 3.0 | 6.0 | 0.00 | 0.00 | 0.00 | 74 | 1012.6 |
| 20260831153143 | 80 | 256 | 4.0 | 8.0 | 0.00 | 0.00 | 0.00 | 74 | 1012.8 |
| 20260831152625 | 80 | 308 | 4.0 | 8.0 | 0.00 | 0.00 | 0.00 | 76 | 1012.9 |
| 20260831152123 | 79 | 329 | 3.0 | 5.0 | 0.00 | 0.00 | 0.00 | 78 | 1012.7 |
| 20260831151630 | 79 | 325 | 2.0 | 7.0 | 0.00 | 0.00 | 0.00 | 79 | 1012.7 |
| 20260831151129 | 78 | 58 | 3.0 | 7.0 | 0.00 | 0.00 | 0.00 | 80 | 1012.7 |
| 20260831150636 | 78 | 249 | 3.0 | 7.0 | 0.00 | 0.00 | 0.00 | 80 | 1012.7 |
| 20260831150115 | 78 | 304 | 5.0 | 7.0 | 0.00 | 0.00 | 0.00 | 82 | 1012.8 |
| 20260831145622 | 78 | 279 | 5.0 | 6.0 | 0.00 | 0.00 | 0.00 | 83 | 1013.0 |
| 20260831145123 | 78 | 265 | 2.0 | 4.0 | 0.00 | 0.00 | 0.00 | 83 | 1012.7 |
| 20260831144627 | 78 | 265 | 1.0 | 3.0 | 0.00 | 0.00 | 0.00 | 83 | 1012.4 |
| 20260831144125 | 78 | 265 | 1.0 | 3.0 | 0.00 | 0.00 | 0.00 | 84 | 1012.1 |
| 20260831143630 | 78 | 265 | 0.0 | 3.0 | 0.00 | 0.00 | 0.00 | 85 | 1012.4 |
| 20260831143130 | 78 | 264 | 2.0 | 3.0 | 0.00 | 0.00 | 0.00 | 84 | 1012.3 |
| 20260831142637 | 78 | 264 | 0.0 | 3.0 | 0.00 | 0.00 | 0.00 | 85 | 1012.4 |
| 20260831142119 | 77 | 264 | 2.0 | 3.0 | 0.00 | 0.00 | 0.00 | 85 | 1012.7 |
| 20260831141644 | 77 | 264 | 1.0 | 3.0 | 0.00 | 0.00 | 0.00 | 85 | 1012.6 |
| 20260831141122 | 77 | 264 | 1.0 | 3.0 | 0.00 | 0.00 | 0.00 | 85 | 1012.4 |
| 20260831140627 | 77 | 264 | 2.0 | 5.0 | 0.00 | 0.00 | 0.00 | 85 | 1012.3 |
| 20260831140131 | 77 | 260 | 3.0 | 6.0 | 0.00 | 0.00 | 0.00 | 85 | 1012.2 |
| 20260831135650 | 77 | 246 | 3.0 | 8.0 | 0.00 | 0.00 | 0.00 | 85 | 1012.0 |
| 20260831135118 | 77 | 302 | 2.0 | 11.0 | 0.00 | 0.00 | 0.00 | 84 | 1011.5 |
| 20260831134621 | 77 | 354 | 3.0 | 11.0 | 0.00 | 0.00 | 0.00 | 84 | 1012.0 |
| 20260831134121 | 77 | 327 | 7.0 | 9.0 | 0.00 | 0.00 | 0.00 | 84 | 1012.2 |
| 20260831133627 | 77 | 316 | 4.0 | 6.0 | 0.00 | 0.00 | 0.00 | 84 | 1012.6 |
| 20260831133125 | 77 | 51 | 1.0 | 6.0 | 0.00 | 0.00 | 0.00 | 85 | 1012.7 |
| 20260831132631 | 77 | 192 | 1.0 | 8.0 | 0.00 | 0.00 | 0.00 | 85 | 1012.6 |
| 20260831132148 | 77 | 320 | 4.0 | 8.0 | 0.00 | 0.00 | 0.00 | 86 | 1012.8 |
| 20260831131652 | 77 | 285 | 2.0 | 5.0 | 0.00 | 0.00 | 0.00 | 86 | 1012.4 |
| 20260831131135 | 77 | 287 | 2.0 | 5.0 | 0.00 | 0.00 | 0.00 | 86 | 1012.5 |
| 20260831130623 | 77 | 283 | 1.0 | 5.0 | 0.00 | 0.00 | 0.00 | 86 | 1012.5 |
| 20260831130129 | 77 | 277 | 0.0 | 6.0 | 0.00 | 0.00 | 0.00 | 86 | 1012.5 |
| 20260831125654 | 77 | 284 | 3.0 | 6.0 | 0.00 | 0.00 | 0.00 | 87 | 1012.7 |
| 20260831125130 | 77 | 295 | 2.0 | 6.0 | 0.00 | 0.00 | 0.00 | 88 | 1012.7 |
| 20260831124654 | 77 | 266 | 3.0 | 6.0 | 0.00 | 0.00 | 0.00 | 88 | 1012.5 |
| 20260831124131 | 77 | 270 | 2.0 | 4.0 | 0.00 | 0.00 | 0.00 | 88 | 1012.3 |
| 20260831123634 | 77 | 239 | 2.0 | 5.0 | 0.00 | 0.00 | 0.00 | 89 | 1012.1 |
| 20260831123135 | 76 | 260 | 2.0 | 5.0 | 0.00 | 0.00 | 0.00 | 90 | 1012.2 |
| 20260831122619 | 76 | 239 | 3.0 | 5.0 | 0.00 | 0.00 | 0.00 | 90 | 1012.2 |
| 20260831122117 | 76 | 252 | 2.0 | 3.0 | 0.00 | 0.00 | 0.00 | 91 | 1012.1 |
| 20260831121628 | 76 | 252 | 1.0 | 3.0 | 0.00 | 0.00 | 0.00 | 91 | 1012.0 |
| 20260831121147 | 76 | 252 | 1.0 | 3.0 | 0.00 | 0.00 | 0.00 | 91 | 1011.7 |
| 20260831120633 | 75 | 252 | 2.0 | 3.0 | 0.00 | 0.00 | 0.00 | 92 | 1011.6 |
| 20260831120131 | 75 | 252 | 2.0 | 3.0 | 0.00 | 0.00 | 0.00 | 92 | 1011.7 |
| 20260831115634 | 75 | 252 | 0.0 | 2.0 | 0.00 | 0.00 | 0.00 | 92 | 1011.4 |
| 20260831115133 | 75 | 252 | 1.0 | 2.0 | 0.00 | 0.00 | 0.00 | 92 | 1011.3 |
| 20260831114657 | 75 | 252 | 0.0 | 2.0 | 0.00 | 0.00 | 0.00 | 92 | 1011.3 |
| 20260831114155 | 75 | 252 | 1.0 | 2.0 | 0.00 | 0.00 | 0.00 | 92 | 1011.2 |
| 20260831113620 | 75 | 252 | 1.0 | 2.0 | 0.00 | 0.00 | 0.00 | 92 | 1011.1 |
| 20260831113119 | 75 | 252 | 0.0 | 2.0 | 0.00 | 0.00 | 0.00 | 92 | 1010.9 |
| 20260831112625 | 75 | 252 | 1.0 | 1.0 | 0.00 | 0.00 | 0.00 | 92 | 1010.9 |
| 20260831112126 | 75 | 252 | 0.0 | 2.0 | 0.00 | 0.00 | 0.00 | 92 | 1010.8 |
| 20260831111616 | 75 | 252 | 1.0 | 2.0 | 0.00 | 0.00 | 0.00 | 92 | 1010.9 |
| 20260831111135 | 75 | 252 | 0.0 | 1.0 | 0.00 | 0.00 | 0.00 | 92 | 1010.7 |
| 20260831110623 | 75 | 252 | 0.0 | 1.0 | 0.00 | 0.00 | 0.00 | 92 | 1010.5 |
| 20260831110125 | 75 | 252 | 0.0 | 1.0 | 0.00 | 0.00 | 0.00 | 92 | 1010.7 |
| 20260831105625 | 75 | 252 | 0.0 | 0.0 | 0.00 | 0.00 | 0.00 | 92 | 1010.6 |
| 20260831105143 | 75 | 252 | 0.0 | 1.0 | 0.00 | 0.00 | 0.00 | 92 | 1010.6 |
| 20260831104626 | 76 | 252 | 0.0 | 2.0 | 0.00 | 0.00 | 0.00 | 92 | 1010.6 |
| 20260831104123 | 75 | 252 | 1.0 | 1.0 | 0.00 | 0.00 | 0.00 | 92 | 1010.6 |
| 20260831103626 | 75 | 252 | 0.0 | 0.0 | 0.00 | 0.00 | 0.00 | 92 | 1010.6 |
| 20260831103124 | 75 | 252 | 0.0 | 1.0 | 0.00 | 0.00 | 0.00 | 91 | 1010.7 |
| 20260831102643 | 75 | 252 | 0.0 | 1.0 | 0.00 | 0.00 | 0.00 | 91 | 1010.6 |
| 20260831102120 | 75 | 252 | 0.0 | 1.0 | 0.00 | 0.00 | 0.00 | 91 | 1010.5 |
| 20260831101624 | 76 | 252 | 0.0 | 0.0 | 0.00 | 0.00 | 0.00 | 91 | 1010.5 |
| 20260831101121 | 76 | 252 | 0.0 | 0.0 | 0.00 | 0.00 | 0.00 | 90 | 1010.4 |
| 20260831100628 | 76 | 252 | 0.0 | 0.0 | 0.00 | 0.00 | 0.00 | 90 | 1010.4 |
| 20260831100130 | 76 | 252 | 0.0 | 0.0 | 0.00 | 0.00 | 0.00 | 90 | 1010.4 |
| 20260831095633 | 76 | 252 | 0.0 | 1.0 | 0.00 | 0.00 | 0.00 | 90 | 1010.2 |
| 20260831095128 | 76 | 252 | 0.0 | 1.0 | 0.00 | 0.00 | 0.00 | 89 | 1010.3 |
| 20260831094631 | 76 | 252 | 0.0 | 1.0 | 0.00 | 0.00 | 0.00 | 89 | 1010.2 |
| 20260831094132 | 76 | 252 | 0.0 | 1.0 | 0.00 | 0.00 | 0.00 | 89 | 1010.2 |
| 20260831093616 | 76 | 252 | 0.0 | 2.0 | 0.00 | 0.00 | 0.00 | 89 | 1010.1 |
| 20260831093154 | 76 | 252 | 1.0 | 2.0 | 0.00 | 0.00 | 0.00 | 89 | 1010.1 |
| 20260831092637 | 77 | 252 | 0.0 | 2.0 | 0.00 | 0.00 | 0.00 | 88 | 1010.0 |
| 20260831092116 | 77 | 252 | 0.0 | 2.0 | 0.00 | 0.00 | 0.00 | 88 | 1009.9 |
| 20260831091642 | 77 | 252 | 1.0 | 1.0 | 0.00 | 0.00 | 0.00 | 87 | 1009.8 |
| 20260831091123 | 77 | 252 | 0.0 | 2.0 | 0.00 | 0.00 | 0.00 | 87 | 1009.9 |
| 20260831090626 | 77 | 252 | 0.0 | 2.0 | 0.00 | 0.00 | 0.00 | 87 | 1009.8 |
| 20260831090129 | 78 | 252 | 0.0 | 0.0 | 0.00 | 0.00 | 0.00 | 86 | 1009.9 |
| 20260831085633 | 78 | 252 | 0.0 | 2.0 | 0.00 | 0.00 | 0.00 | 86 | 1009.8 |
| 20260831085131 | 78 | 252 | 0.0 | 2.0 | 0.00 | 0.00 | 0.00 | 86 | 1009.7 |
| 20260831084615 | 78 | 252 | 0.0 | 2.0 | 0.00 | 0.00 | 0.00 | 85 | 1009.7 |
| 20260831084135 | 78 | 252 | 0.0 | 4.0 | 0.00 | 0.00 | 0.00 | 85 | 1009.6 |
| 20260831083623 | 78 | 252 | 1.0 | 4.0 | 0.00 | 0.00 | 0.00 | 85 | 1009.5 |
| 20260831083126 | 78 | 177 | 0.0 | 2.0 | 0.00 | 0.00 | 0.00 | 85 | 1009.5 |
| 20260831082613 | 78 | 177 | 1.0 | 2.0 | 0.00 | 0.00 | 0.00 | 85 | 1009.5 |
| 20260831082117 | 79 | 177 | 0.0 | 2.0 | 0.00 | 0.00 | 0.00 | 85 | 1009.5 |
| 20260831081645 | 79 | 177 | 0.0 | 1.0 | 0.00 | 0.00 | 0.00 | 85 | 1009.4 |
| 20260831081121 | 79 | 177 | 0.0 | 2.0 | 0.00 | 0.00 | 0.00 | 85 | 1009.5 |
| 20260831080644 | 79 | 177 | 0.0 | 4.0 | 0.00 | 0.00 | 0.00 | 84 | 1009.4 |
| 20260831080120 | 79 | 177 | 1.0 | 4.0 | 0.00 | 0.00 | 0.00 | 84 | 1009.4 |
| 20260831075626 | 79 | 177 | 0.0 | 4.0 | 0.00 | 0.00 | 0.00 | 84 | 1009.3 |
| 20260831075124 | 79 | 177 | 1.0 | 4.0 | 0.00 | 0.00 | 0.00 | 85 | 1009.3 |
| 20260831074649 | 79 | 142 | 1.0 | 4.0 | 0.00 | 0.00 | 0.00 | 85 | 1009.3 |
| 20260831074129 | 79 | 183 | 2.0 | 4.0 | 0.00 | 0.00 | 0.00 | 85 | 1009.3 |
| 20260831073632 | 79 | 143 | 0.0 | 4.0 | 0.00 | 0.00 | 0.00 | 85 | 1009.4 |
| 20260831073150 | 79 | 143 | 0.0 | 4.0 | 0.00 | 0.00 | 0.00 | 85 | 1009.5 |
| 20260831072638 | 79 | 210 | 0.0 | 2.0 | 0.00 | 0.00 | 0.00 | 85 | 1009.6 |
| 20260831072116 | 79 | 211 | 0.0 | 2.0 | 0.00 | 0.00 | 0.00 | 86 | 1009.6 |
| 20260831071618 | 79 | 210 | 1.0 | 2.0 | 0.00 | 0.00 | 0.00 | 86 | 1009.5 |
| 20260831071135 | 79 | 210 | 0.0 | 2.0 | 0.00 | 0.00 | 0.00 | 86 | 1009.6 |
| 20260831070621 | 79 | 210 | 0.0 | 0.0 | 0.00 | 0.00 | 0.00 | 86 | 1009.6 |
| 20260831070116 | 79 | 211 | 0.0 | 1.0 | 0.00 | 0.00 | 0.00 | 86 | 1009.7 |
| 20260831065644 | 79 | 211 | 0.0 | 1.0 | 0.00 | 0.00 | 0.00 | 86 | 1009.7 |
| 20260831065118 | 79 | 211 | 0.0 | 0.0 | 0.00 | 0.00 | 0.00 | 86 | 1009.8 |
| 20260831064622 | 79 | 211 | 0.0 | 0.0 | 0.00 | 0.00 | 0.00 | 85 | 1009.8 |
| 20260831064119 | 79 | 211 | 0.0 | 0.0 | 0.00 | 0.00 | 0.00 | 85 | 1009.7 |
| 20260831063644 | 79 | 211 | 0.0 | 1.0 | 0.00 | 0.00 | 0.00 | 85 | 1009.7 |
| 20260831063124 | 80 | 210 | 0.0 | 0.0 | 0.00 | 0.00 | 0.00 | 84 | 1009.7 |
| 20260831062628 | 80 | 210 | 0.0 | 1.0 | 0.00 | 0.00 | 0.00 | 84 | 1009.7 |
| 20260831062129 | 80 | 211 | 0.0 | 1.0 | 0.00 | 0.00 | 0.00 | 83 | 1009.7 |
| 20260831061633 | 80 | 211 | 0.0 | 1.0 | 0.00 | 0.00 | 0.00 | 83 | 1009.7 |
| 20260831061131 | 80 | 211 | 0.0 | 1.0 | 0.00 | 0.00 | 0.00 | 83 | 1009.6 |
| 20260831060634 | 81 | 210 | 0.0 | 1.0 | 0.00 | 0.00 | 0.00 | 82 | 1009.6 |
| 20260831060133 | 81 | 210 | 0.0 | 1.0 | 0.00 | 0.00 | 0.00 | 82 | 1009.6 |
| 20260831055616 | 81 | 210 | 0.0 | 0.0 | 0.00 | 0.00 | 0.00 | 81 | 1009.5 |
| 20260831055133 | 81 | 211 | 0.0 | 1.0 | 0.00 | 0.00 | 0.00 | 81 | 1009.5 |
| 20260831054617 | 82 | 211 | 0.0 | 2.0 | 0.00 | 0.00 | 0.00 | 80 | 1009.4 |
| 20260831054133 | 82 | 210 | 0.0 | 2.0 | 0.00 | 0.00 | 0.00 | 79 | 1009.3 |
| 20260831053622 | 83 | 211 | 0.0 | 2.0 | 0.00 | 0.00 | 0.00 | 79 | 1009.3 |
| 20260831053123 | 83 | 210 | 0.0 | 2.0 | 0.00 | 0.00 | 0.00 | 78 | 1009.3 |
| 20260831052629 | 83 | 210 | 0.0 | 2.0 | 0.00 | 0.00 | 0.00 | 77 | 1009.3 |
| 20260831052129 | 84 | 210 | 0.0 | 2.0 | 0.00 | 0.00 | 0.00 | 77 | 1009.1 |
| 20260831051632 | 84 | 210 | 1.0 | 4.0 | 0.00 | 0.00 | 0.00 | 76 | 1009.0 |
| 20260831051131 | 83 | 210 | 1.0 | 4.0 | 0.00 | 0.00 | 0.00 | 77 | 1008.9 |
| 20260831050618 | 83 | 192 | 0.0 | 4.0 | 0.00 | 0.00 | 0.00 | 77 | 1008.9 |
| 20260831050136 | 83 | 221 | 1.0 | 4.0 | 0.00 | 0.00 | 0.00 | 78 | 1009.0 |
| 20260831045650 | 83 | 146 | 1.0 | 5.0 | 0.00 | 0.00 | 0.00 | 79 | 1009.0 |
| 20260831045126 | 82 | 143 | 1.0 | 5.0 | 0.00 | 0.00 | 0.00 | 79 | 1009.0 |
| 20260831044654 | 82 | 137 | 1.0 | 2.0 | 0.00 | 0.00 | 0.00 | 79 | 1009.0 |
| 20260831044132 | 82 | 227 | 0.0 | 2.0 | 0.00 | 0.00 | 0.00 | 79 | 1009.0 |
| 20260831043618 | 82 | 229 | 0.0 | 1.0 | 0.00 | 0.00 | 0.00 | 79 | 1009.0 |
| 20260831043117 | 82 | 229 | 0.0 | 1.0 | 0.00 | 0.00 | 0.00 | 79 | 1009.0 |
| 20260831042621 | 82 | 229 | 0.0 | 1.0 | 0.00 | 0.00 | 0.00 | 79 | 1009.0 |
| 20260831042141 | 82 | 229 | 0.0 | 0.0 | 0.00 | 0.00 | 0.00 | 79 | 1009.0 |
| 20260831041629 | 82 | 229 | 0.0 | 0.0 | 0.00 | 0.00 | 0.00 | 79 | 1009.1 |
| 20260831041128 | 82 | 229 | 0.0 | 0.0 | 0.00 | 0.00 | 0.00 | 79 | 1009.1 |
| 20260831040636 | 82 | 229 | 0.0 | 0.0 | 0.00 | 0.00 | 0.00 | 79 | 1009.1 |
| 20260831040123 | 82 | 229 | 0.0 | 0.0 | 0.00 | 0.00 | 0.00 | 78 | 1009.2 |
| 20260831035626 | 82 | 229 | 0.0 | 0.0 | 0.00 | 0.00 | 0.00 | 78 | 1009.3 |
| 20260831035126 | 83 | 229 | 0.0 | 0.0 | 0.00 | 0.00 | 0.00 | 78 | 1009.3 |
| 20260831034650 | 83 | 229 | 0.0 | 0.0 | 0.00 | 0.00 | 0.00 | 78 | 1009.3 |
| 20260831034127 | 83 | 229 | 0.0 | 0.0 | 0.00 | 0.00 | 0.00 | 77 | 1009.3 |
| 20260831033656 | 83 | 229 | 0.0 | 0.0 | 0.00 | 0.00 | 0.00 | 77 | 1009.4 |
| 20260831033131 | 83 | 229 | 0.0 | 0.0 | 0.00 | 0.00 | 0.00 | 77 | 1009.3 |
| 20260831032619 | 83 | 229 | 0.0 | 1.0 | 0.00 | 0.00 | 0.00 | 77 | 1009.3 |
| 20260831032121 | 83 | 229 | 0.0 | 1.0 | 0.00 | 0.00 | 0.00 | 77 | 1009.3 |
| 20260831031623 | 82 | 229 | 0.0 | 1.0 | 0.00 | 0.00 | 0.00 | 78 | 1009.4 |
| 20260831031121 | 82 | 229 | 0.0 | 0.0 | 0.00 | 0.00 | 0.00 | 78 | 1009.4 |
| 20260831030624 | 83 | 229 | 0.0 | 0.0 | 0.00 | 0.00 | 0.00 | 78 | 1009.5 |
| 20260831030123 | 83 | 229 | 0.0 | 0.0 | 0.00 | 0.00 | 0.00 | 78 | 1009.7 |
| 20260831025630 | 83 | 229 | 0.0 | 0.0 | 0.00 | 0.00 | 0.00 | 77 | 1009.6 |
| 20260831025130 | 83 | 229 | 0.0 | 0.0 | 0.00 | 0.00 | 0.00 | 77 | 1009.6 |
| 20260831024618 | 83 | 229 | 0.0 | 0.0 | 0.00 | 0.00 | 0.00 | 77 | 1009.6 |
| 20260831024155 | 83 | 229 | 0.0 | 0.0 | 0.00 | 0.00 | 0.00 | 76 | 1009.6 |
| 20260831023623 | 84 | 229 | 0.0 | 0.0 | 0.00 | 0.00 | 0.00 | 76 | 1009.6 |
| 20260831023121 | 84 | 229 | 0.0 | 0.0 | 0.00 | 0.00 | 0.00 | 76 | 1009.5 |
| 20260831022625 | 84 | 229 | 0.0 | 0.0 | 0.00 | 0.00 | 0.00 | 75 | 1009.4 |
| 20260831022123 | 84 | 229 | 0.0 | 0.0 | 0.00 | 0.00 | 0.00 | 75 | 1009.4 |
| 20260831021627 | 84 | 229 | 0.0 | 0.0 | 0.00 | 0.00 | 0.00 | 74 | 1009.4 |
| 20260831021126 | 85 | 229 | 0.0 | 0.0 | 0.00 | 0.00 | 0.00 | 74 | 1009.4 |
| 20260831020630 | 85 | 229 | 0.0 | 0.0 | 0.00 | 0.00 | 0.00 | 73 | 1009.3 |
| 20260831020127 | 85 | 229 | 0.0 | 0.0 | 0.00 | 0.00 | 0.00 | 72 | 1009.3 |
| 20260831015630 | 85 | 229 | 0.0 | 0.0 | 0.00 | 0.00 | 0.00 | 71 | 1009.3 |
| 20260831015128 | 86 | 229 | 0.0 | 0.0 | 0.00 | 0.00 | 0.00 | 71 | 1009.2 |
| 20260831014631 | 86 | 229 | 0.0 | 0.0 | 0.00 | 0.00 | 0.00 | 70 | 1009.1 |
| 20260831014133 | 86 | 229 | 0.0 | 0.0 | 0.00 | 0.00 | 0.00 | 69 | 1009.0 |
| 20260831013620 | 87 | 229 | 0.0 | 0.0 | 0.00 | 0.00 | 0.00 | 68 | 1008.9 |
| 20260831013118 | 87 | 229 | 0.0 | 0.0 | 0.00 | 0.00 | 0.00 | 68 | 1008.9 |
| 20260831012623 | 87 | 229 | 0.0 | 0.0 | 0.00 | 0.00 | 0.00 | 67 | 1008.9 |
| 20260831012118 | 88 | 229 | 0.0 | 0.0 | 0.00 | 0.00 | 0.00 | 67 | 1009.0 |
| 20260831011622 | 88 | 229 | 0.0 | 0.0 | 0.00 | 0.00 | 0.00 | 67 | 1008.9 |
| 20260831011139 | 88 | 229 | 0.0 | 0.0 | 0.00 | 0.00 | 0.00 | 66 | 1008.9 |
| 20260831010623 | 89 | 229 | 0.0 | 0.0 | 0.00 | 0.00 | 0.00 | 65 | 1008.9 |
| 20260831010125 | 89 | 229 | 0.0 | 0.0 | 0.00 | 0.00 | 0.00 | 65 | 1008.8 |
| 20260831005625 | 90 | 229 | 0.0 | 2.0 | 0.00 | 0.00 | 0.00 | 64 | 1008.8 |
| 20260831005122 | 90 | 229 | 0.0 | 2.0 | 0.00 | 0.00 | 0.00 | 63 | 1008.7 |
| 20260831004628 | 91 | 229 | 0.0 | 3.0 | 0.00 | 0.00 | 0.00 | 63 | 1008.8 |
| 20260831004125 | 91 | 229 | 0.0 | 3.0 | 0.00 | 0.00 | 0.00 | 62 | 1008.8 |
| 20260831003629 | 91 | 229 | 0.0 | 3.0 | 0.00 | 0.00 | 0.00 | 62 | 1008.9 |
| 20260831003126 | 91 | 229 | 0.0 | 4.0 | 0.00 | 0.00 | 0.00 | 61 | 1008.8 |
| 20260831002653 | 92 | 249 | 1.0 | 4.0 | 0.00 | 0.00 | 0.00 | 60 | 1008.8 |
| 20260831002115 | 92 | 243 | 1.0 | 3.0 | 0.00 | 0.00 | 0.00 | 60 | 1008.9 |
| 20260831001624 | 92 | 275 | 1.0 | 3.0 | 0.00 | 0.00 | 0.00 | 60 | 1008.8 |
| 20260831001121 | 92 | 275 | 1.0 | 3.0 | 0.00 | 0.00 | 0.00 | 59 | 1008.8 |
| 20260831000625 | 92 | 275 | 2.0 | 3.0 | 0.00 | 0.00 | 0.00 | 59 | 1008.8 |